Location: Albany
(35.0000°S, 118.0000°E)
Time: 00:22:42
(UTC-04:00)

ADEOS Rocket - Visible Passes

Search period start: 25 August 2016 00:00
Search period end: 04 September 2016 00:00
Orbit: 859 x 1306 km, 98.7° (Epoch: 24 August)

Date Brightness Start Highest point End Pass type
(mag) Time Alt. Az. Time Alt. Az. Time Alt. Az.
25 Aug5.815:24:44S15:24:44S15:08:43NNEvisible
26 Aug5.716:21:56SSW16:21:56SSW16:06:01Nvisible
27 Aug5.715:32:10S15:32:10S15:16:22NNEvisible
28 Aug 5.8 06:08:33 10° SW 06:09:42 11° WSW 06:10:51 10° WSW visible
28 Aug5.716:29:22SSW16:29:22SSW16:13:39Nvisible
29 Aug5.615:39:36S15:39:36S15:23:59NNEvisible
30 Aug5.616:36:47SSW16:36:47SSW16:21:16NNWvisible
31 Aug5.415:47:00SSW15:47:00SSW15:31:36NNEvisible
01 Sep 5.5 14:57:14 11° S 14:57:14 11° S 14:57:26 10° S visible
01 Sep5.516:44:11SSW16:44:11SSW16:28:52NNWvisible
02 Sep 5.3 15:54:24 10° SSW 15:54:24 10° SSW 15:39:11 - N visible
03 Sep 5.4 15:04:38 13° S 15:04:38 13° S 15:05:10 10° S visible
03 Sep5.516:51:34SSW16:51:34SSW16:36:26NNWvisible
